Liberal, KS

2:51 AM CDT on April 28, 2017 (GMT -0500)
Liberal Municipal

Weather History for KLBL - May, 2013

Change the Weather History Date:

Thursday, May 9, 2013

  Actual Average Record
Temperature  
Mean Temperature 60 °F -  
Max Temperature 73 °F 78 °F 101 °F (1956)
Min Temperature 46 °F 49 °F 39 °F (1997)
Degree Days  
Heating Degree Days 6    
Growing Degree Days 10 (Base 50)    
Moisture  
Dew Point 44 °F    
Average Humidity 57    
Maximum Humidity 82    
Minimum Humidity 36    
Precipitation  
Precipitation 0.00 in - - ()
Sea Level Pressure  
Sea Level Pressure 30.02 in    
Wind  
Wind Speed 13 mph (North)    
Max Wind Speed 21 mph    
Max Gust Speed 33 mph    
Visibility 10 miles    
Events      
Averages and records for this station are not official NWS values.
T = Trace of Precipitation, MM = Missing Value Source: NWS Daily Summary

Daily Weather History Graph

Daily Weather History Graph

Search for Another Location

Airport or City:

Trip Planner

Search our weather history database for the weather conditions in past years. The results will help you decide how hot, cold, wet, or windy it might be!

Date:

Astronomy

May. 09, 2013 Rise Set
Actual Time 6:40 AM CDT 8:40 PM CDT
Civil Twilight 6:12 AM CDT 9:08 PM CDT
Nautical Twilight 5:37 AM CDT 9:43 PM CDT
Astronomical Twilight 5:00 AM CDT 10:21 PM CDT
Moon 6:25 AM CDT (5/9) 8:37 PM CDT (5/9)
Length of Visible Light 14h 56m
Length of Day
13h 59m
Waning Crescent, 0% of the Moon is Illuminated
May 9
Waning Crescent
May 9
New
May 17
First Quarter
May 24
Full
May 31
Last Quarter

Hourly Weather History & Observations

Time (CDT) Temp. Windchill Dew Point Humidity Pressure Visibility Wind Dir Wind Speed Gust Speed Precip Events Conditions
12:15 AM 53.6 °F - 42.8 °F 67% 29.97 in 10.0 mi NW 13.8 mph - N/A   Clear
12:35 AM 51.8 °F - 42.8 °F 71% 29.98 in 10.0 mi NNW 11.5 mph - N/A   Clear
12:55 AM 51.8 °F - 42.8 °F 71% 29.97 in 10.0 mi North 11.5 mph - N/A   Clear
1:15 AM 51.8 °F - 42.8 °F 71% 29.97 in 10.0 mi NNW 10.4 mph - N/A   Clear
1:35 AM 50.0 °F - 42.8 °F 76% 29.99 in 10.0 mi NW 11.5 mph - N/A   Clear
1:55 AM 50.0 °F - 42.8 °F 76% 29.98 in 10.0 mi NW 11.5 mph - N/A   Clear
2:15 AM 51.8 °F - 42.8 °F 71% 29.98 in 10.0 mi NNW 8.1 mph - N/A   Mostly Cloudy
2:35 AM 50.0 °F - 42.8 °F 76% 29.98 in 10.0 mi NW 10.4 mph - N/A   Scattered Clouds
2:55 AM 50.0 °F - 41.0 °F 71% 29.97 in 10.0 mi NNW 10.4 mph - N/A   Partly Cloudy
3:15 AM 48.2 °F - 41.0 °F 76% 29.97 in 10.0 mi NW 10.4 mph - N/A   Partly Cloudy
3:35 AM 48.2 °F - 41.0 °F 76% 29.97 in 10.0 mi NW 10.4 mph - N/A   Scattered Clouds
3:55 AM 50.0 °F - 42.8 °F 76% 29.97 in 10.0 mi NW 9.2 mph - N/A   Overcast
4:15 AM 51.8 °F - 42.8 °F 71% 29.97 in 10.0 mi NNW 9.2 mph - N/A   Overcast
4:35 AM 51.8 °F - 42.8 °F 71% 29.97 in 10.0 mi NW 11.5 mph - N/A   Overcast
4:55 AM 51.8 °F - 42.8 °F 71% 29.97 in 10.0 mi NNW 9.2 mph - N/A   Overcast
5:15 AM 48.2 °F - 41.0 °F 76% 29.97 in 10.0 mi NW 10.4 mph - N/A   Overcast
5:35 AM 48.2 °F - 39.2 °F 71% 29.97 in 10.0 mi NNW 12.7 mph - N/A   Mostly Cloudy
5:55 AM 46.4 °F 41.9 °F 39.2 °F 76% 29.97 in 10.0 mi NW 9.2 mph - N/A   Scattered Clouds
6:15 AM 46.4 °F 42.4 °F 39.2 °F 76% 29.99 in 10.0 mi WNW 8.1 mph - N/A   Scattered Clouds
6:35 AM 46.4 °F 41.5 °F 39.2 °F 76% 29.99 in 10.0 mi NW 10.4 mph - N/A   Mostly Cloudy
6:55 AM 46.4 °F 41.1 °F 39.2 °F 76% 30.00 in 10.0 mi NW 11.5 mph - N/A   Scattered Clouds
7:15 AM 46.4 °F 41.1 °F 39.2 °F 76% 30.01 in 10.0 mi NW 11.5 mph - N/A   Clear
7:35 AM 46.4 °F 41.1 °F 39.2 °F 76% 30.01 in 10.0 mi NW 11.5 mph - N/A   Clear
7:55 AM 48.2 °F - 42.8 °F 82% 30.01 in 10.0 mi NNW 15.0 mph - N/A   Clear
8:15 AM 51.8 °F - 42.8 °F 71% 30.03 in 10.0 mi NNW 12.7 mph - N/A   Clear
8:35 AM 53.6 °F - 44.6 °F 72% 30.03 in 10.0 mi NNW 12.7 mph - N/A   Clear
8:55 AM 57.2 °F - 46.4 °F 67% 30.03 in 10.0 mi NNW 13.8 mph - N/A   Clear
9:15 AM 59.0 °F - 48.2 °F 67% 30.04 in 10.0 mi North 16.1 mph - N/A   Clear
9:35 AM 60.8 °F - 48.2 °F 63% 30.05 in 10.0 mi NNW 13.8 mph - N/A   Clear
9:55 AM 62.6 °F - 48.2 °F 59% 30.05 in 10.0 mi North 15.0 mph - N/A   Clear
10:35 AM 64.4 °F - 50.0 °F 59% 30.05 in 10.0 mi North 15.0 mph - N/A   Clear
10:55 AM 66.2 °F - 50.0 °F 56% 30.05 in 10.0 mi North 12.7 mph - N/A   Clear
11:15 AM 66.2 °F - 48.2 °F 52% 30.05 in 10.0 mi NNE 15.0 mph 19.6 mph N/A   Clear
11:35 AM 68.0 °F - 48.2 °F 49% 30.05 in 10.0 mi NNE 15.0 mph - N/A   Scattered Clouds
12:15 PM 69.8 °F - 48.2 °F 46% 30.05 in 10.0 mi North 15.0 mph 20.7 mph N/A   Mostly Cloudy
12:35 PM 69.8 °F - 48.2 °F 46% 30.05 in 10.0 mi NNE 13.8 mph 21.9 mph N/A   Partly Cloudy
12:55 PM 71.6 °F - 48.2 °F 43% 30.04 in 10.0 mi NNE 16.1 mph 33.4 mph N/A   Scattered Clouds
1:15 PM 69.8 °F - 48.2 °F 46% 30.04 in 10.0 mi North 18.4 mph 24.2 mph N/A   Mostly Cloudy
1:35 PM 71.6 °F - 48.2 °F 43% 30.05 in 10.0 mi North 18.4 mph 26.5 mph N/A   Scattered Clouds
1:55 PM 73.4 °F - 48.2 °F 41% 30.04 in 10.0 mi NE 12.7 mph 19.6 mph N/A   Scattered Clouds
2:15 PM 73.4 °F - 48.2 °F 41% 30.03 in 10.0 mi North 15.0 mph 21.9 mph N/A   Mostly Cloudy
2:35 PM 73.4 °F - 48.2 °F 41% 30.03 in 10.0 mi North 18.4 mph 24.2 mph N/A   Scattered Clouds
2:55 PM 73.4 °F - 46.4 °F 38% 30.03 in 10.0 mi North 17.3 mph 23.0 mph N/A   Scattered Clouds
3:15 PM 71.6 °F - 44.6 °F 38% 30.03 in 10.0 mi North 16.1 mph 24.2 mph N/A   Mostly Cloudy
3:35 PM 71.6 °F - 44.6 °F 38% 30.03 in 10.0 mi NNE 17.3 mph 26.5 mph N/A   Mostly Cloudy
3:55 PM 69.8 °F - 44.6 °F 40% 30.02 in 10.0 mi North 17.3 mph - N/A   Overcast
4:15 PM 71.6 °F - 46.4 °F 41% 30.02 in 10.0 mi NNE 11.5 mph 19.6 mph N/A   Mostly Cloudy
4:35 PM 71.6 °F - 44.6 °F 38% 30.02 in 10.0 mi NE 17.3 mph 21.9 mph N/A   Mostly Cloudy
4:55 PM 73.4 °F - 44.6 °F 36% 30.02 in 10.0 mi NNE 20.7 mph 24.2 mph N/A   Mostly Cloudy
5:15 PM 71.6 °F - 44.6 °F 38% 30.01 in 10.0 mi North 19.6 mph 28.8 mph N/A   Mostly Cloudy
5:35 PM 71.6 °F - 44.6 °F 38% 30.02 in 10.0 mi NNE 17.3 mph - N/A   Partly Cloudy
5:55 PM 71.6 °F - 44.6 °F 38% 30.02 in 10.0 mi North 15.0 mph 19.6 mph N/A   Clear
6:15 PM 69.8 °F - 44.6 °F 40% 30.02 in 10.0 mi NNE 18.4 mph 26.5 mph N/A   Mostly Cloudy
6:35 PM 71.6 °F - 44.6 °F 38% 30.02 in 10.0 mi NE 18.4 mph 23.0 mph N/A   Scattered Clouds
6:55 PM 69.8 °F - 44.6 °F 40% 30.02 in 10.0 mi North 17.3 mph - N/A   Partly Cloudy
7:15 PM 69.8 °F - 42.8 °F 38% 30.01 in 10.0 mi NNE 17.3 mph 21.9 mph N/A   Clear
7:35 PM 69.8 °F - 42.8 °F 38% 30.02 in 10.0 mi North 19.6 mph - N/A   Clear
7:55 PM 66.2 °F - 42.8 °F 43% 30.02 in 10.0 mi NNE 16.1 mph - N/A   Clear
8:15 PM 66.2 °F - 41.0 °F 40% 30.03 in 10.0 mi North 15.0 mph - N/A   Clear
8:55 PM 62.6 °F - 41.0 °F 45% 30.06 in 10.0 mi North 6.9 mph - N/A   Clear
9:15 PM 60.8 °F - 41.0 °F 48% 30.06 in 10.0 mi NNW 10.4 mph - N/A   Clear
9:35 PM 59.0 °F - 41.0 °F 51% 30.07 in 10.0 mi NNW 9.2 mph - N/A   Clear
9:55 PM 57.2 °F - 41.0 °F 55% 30.09 in 10.0 mi NNW 6.9 mph - N/A   Clear
10:15 PM 57.2 °F - 41.0 °F 55% 30.11 in 10.0 mi North 11.5 mph - N/A   Mostly Cloudy
10:55 PM 57.2 °F - 44.6 °F 63% 30.12 in 10.0 mi NNE 15.0 mph - N/A   Clear
11:15 PM 57.2 °F - 44.6 °F 63% 30.12 in 10.0 mi NNE 13.8 mph - N/A   Clear
11:35 PM 57.2 °F - 44.6 °F 63% 30.12 in 10.0 mi NNE 10.4 mph - N/A   Scattered Clouds